Weather History for KLPC - November, 2012

Change the Weather History Date:

Friday, November 16, 2012

  Actual Average Record
Temperature  
Mean Temperature 62 °F -  
Max Temperature 68 °F 70 °F 87 °F (2008)
Min Temperature 57 °F 43 °F 29 °F (1958)
Degree Days  
Heating Degree Days 2    
Growing Degree Days 12 (Base 50)    
Moisture  
Dew Point 51 °F    
Average Humidity 68    
Maximum Humidity 82    
Minimum Humidity 52    
Precipitation  
Precipitation 0.00 in - - ()
Sea Level Pressure  
Sea Level Pressure 30.02 in    
Wind  
Wind Speed 9 mph (SE)    
Max Wind Speed 20 mph    
Max Gust Speed 28 mph    
Visibility 10 miles    
Events      
Averages and records for this station are not official NWS values.
T = Trace of Precipitation, MM = Missing Value Source: NWS Daily Summary

Daily Weather History Graph

Daily Weather History Graph

Search for Another Location

Airport or City:

Trip Planner

Search our weather history database for the weather conditions in past years. The results will help you decide how hot, cold, wet, or windy it might be!

Date:

Astronomy

Nov. 16, 2012 Rise Set
Actual Time 6:37 AM PST 4:55 PM PST
Civil Twilight 6:10 AM PST 5:22 PM PST
Nautical Twilight 5:39 AM PST 5:53 PM PST
Astronomical Twilight 5:09 AM PST 6:23 PM PST
Moon 9:34 AM PST (11/16) 8:02 PM PST (11/16)
Length of Visible Light 11h 12m
Length of Day
10h 18m
Waxing Crescent, 12% of the Moon is Illuminated
Nov 16
Waxing Crescent
Nov 20
First Quarter
Nov 28
Full
Dec 6
Last Quarter
Dec 13
New

Hourly Weather History & Observations

Time (PST) Temp. Dew Point Humidity Pressure Visibility Wind Dir Wind Speed Gust Speed Precip Events Conditions
12:15 AM 59.0 °F 46.4 °F 63% 30.06 in 10.0 mi SE 4.6 mph - N/A   Overcast
12:35 AM 59.0 °F 46.4 °F 63% 30.05 in 10.0 mi SSE 4.6 mph - N/A   Overcast
12:55 AM 59.0 °F 44.6 °F 59% 30.05 in 10.0 mi SE 5.8 mph - N/A   Overcast
1:15 AM 59.0 °F 44.6 °F 59% 30.04 in 10.0 mi SE 5.8 mph - N/A   Overcast
1:35 AM 60.8 °F 42.8 °F 52% 30.04 in 10.0 mi SSE 5.8 mph - N/A   Overcast
1:55 AM 60.8 °F 42.8 °F 52% 30.04 in 10.0 mi South 3.5 mph - N/A   Overcast
2:15 AM 60.8 °F 42.8 °F 52% 30.04 in 10.0 mi SSE 4.6 mph - N/A   Overcast
2:35 AM 60.8 °F 44.6 °F 55% 30.04 in 10.0 mi SSE 4.6 mph - N/A   Overcast
2:55 AM 59.0 °F 46.4 °F 63% 30.02 in 10.0 mi ESE 8.1 mph - N/A   Overcast
3:15 AM 59.0 °F 46.4 °F 63% 30.03 in 10.0 mi South 6.9 mph - N/A   Overcast
3:35 AM 59.0 °F 46.4 °F 63% 30.03 in 10.0 mi South 4.6 mph - N/A   Overcast
3:55 AM 60.8 °F 46.4 °F 59% 30.03 in 10.0 mi SSE 3.5 mph - N/A   Overcast
4:15 AM 59.0 °F 46.4 °F 63% 30.02 in 10.0 mi ESE 4.6 mph - N/A   Overcast
4:35 AM 60.8 °F 46.4 °F 59% 30.01 in 10.0 mi SE 9.2 mph - N/A   Overcast
4:55 AM 60.8 °F 44.6 °F 55% 30.02 in 10.0 mi SE 8.1 mph - N/A   Overcast
5:15 AM 60.8 °F 44.6 °F 55% 30.02 in 10.0 mi ESE 10.4 mph 16.1 mph N/A   Overcast
5:35 AM 60.8 °F 44.6 °F 55% 30.03 in 10.0 mi SE 8.1 mph - N/A   Overcast
5:55 AM 60.8 °F 46.4 °F 59% 30.03 in 10.0 mi SSE 11.5 mph 19.6 mph N/A   Overcast
6:15 AM 60.8 °F 48.2 °F 63% 30.02 in 10.0 mi South 6.9 mph - N/A   Overcast
6:35 AM 59.0 °F 48.2 °F 67% 30.02 in 10.0 mi SE 8.1 mph 20.7 mph N/A   Partly Cloudy
6:55 AM 57.2 °F 46.4 °F 67% 30.02 in 10.0 mi East 8.1 mph - N/A   Mostly Cloudy
7:15 AM 57.2 °F 48.2 °F 72% 30.03 in 10.0 mi ESE 5.8 mph - N/A   Mostly Cloudy
7:35 AM 59.0 °F 48.2 °F 67% 30.03 in 10.0 mi SE 3.5 mph - N/A   Overcast
7:55 AM 60.8 °F 48.2 °F 63% 30.04 in 10.0 mi SE 11.5 mph - N/A   Overcast
8:15 AM 60.8 °F 48.2 °F 63% 30.04 in 10.0 mi SE 15.0 mph 18.4 mph N/A   Overcast
8:35 AM 60.8 °F 50.0 °F 68% 30.05 in 10.0 mi SE 11.5 mph 20.7 mph N/A   Overcast
8:55 AM 59.0 °F 51.8 °F 77% 30.06 in 10.0 mi SSE 15.0 mph 24.2 mph N/A   Overcast
9:15 AM 59.0 °F 51.8 °F 77% 30.06 in 10.0 mi SSE 15.0 mph 25.3 mph N/A   Overcast
9:35 AM 59.0 °F 51.8 °F 77% 30.06 in 9.0 mi SE 13.8 mph - N/A   Overcast
9:55 AM 60.8 °F 51.8 °F 72% 30.06 in 10.0 mi SSE 11.5 mph 20.7 mph N/A   Overcast
10:15 AM 60.8 °F 51.8 °F 72% 30.06 in 10.0 mi SSE 13.8 mph 19.6 mph N/A   Overcast
10:35 AM 62.6 °F 53.6 °F 72% 30.06 in 10.0 mi SE 13.8 mph 20.7 mph N/A   Overcast
10:55 AM 64.4 °F 53.6 °F 68% 30.06 in 10.0 mi SSE 13.8 mph 19.6 mph N/A   Overcast
11:15 AM 62.6 °F 53.6 °F 72% 30.05 in 10.0 mi SSE 12.7 mph 18.4 mph N/A   Overcast
11:35 AM 60.8 °F 55.4 °F 82% 30.05 in 8.0 mi SSE 10.4 mph - N/A   Overcast
11:55 AM 60.8 °F 55.4 °F 82% 30.04 in 10.0 mi SSE 13.8 mph 18.4 mph N/A   Mostly Cloudy
12:15 PM 62.6 °F 57.2 °F 82% 30.03 in 10.0 mi SE 13.8 mph 21.9 mph N/A   Overcast
12:35 PM 64.4 °F 55.4 °F 73% 30.02 in 10.0 mi SE 18.4 mph 26.5 mph N/A   Overcast
12:55 PM 66.2 °F 55.4 °F 68% 30.01 in 10.0 mi SSE 15.0 mph 21.9 mph N/A   Overcast
1:15 PM 66.2 °F 53.6 °F 64% 30.00 in 10.0 mi SSE 17.3 mph 26.5 mph N/A   Mostly Cloudy
1:35 PM 66.2 °F 53.6 °F 64% 30.00 in 10.0 mi SE 16.1 mph 27.6 mph N/A   Partly Cloudy
1:55 PM 66.2 °F 53.6 °F 64% 29.99 in 10.0 mi SSE 17.3 mph 25.3 mph N/A   Partly Cloudy
2:15 PM 68.0 °F 53.6 °F 60% 29.99 in 10.0 mi SSE 19.6 mph 23.0 mph N/A   Mostly Cloudy
2:35 PM 66.2 °F 53.6 °F 64% 29.99 in 10.0 mi SSE 17.3 mph 21.9 mph N/A   Overcast
2:55 PM 66.2 °F 53.6 °F 64% 29.99 in 10.0 mi SSE 15.0 mph 23.0 mph N/A   Overcast
3:15 PM 64.4 °F 53.6 °F 68% 30.00 in 10.0 mi SSE 12.7 mph 19.6 mph N/A   Mostly Cloudy
3:35 PM 62.6 °F 53.6 °F 72% 30.00 in 10.0 mi SSE 12.7 mph 19.6 mph N/A   Overcast
3:55 PM 62.6 °F 53.6 °F 72% 29.99 in 10.0 mi SE 10.4 mph 17.3 mph N/A   Overcast
4:15 PM 62.6 °F 53.6 °F 72% 29.99 in 10.0 mi SE 9.2 mph 16.1 mph N/A   Mostly Cloudy
4:35 PM 60.8 °F 53.6 °F 77% 29.99 in 10.0 mi SE 10.4 mph - N/A   Overcast
4:55 PM 60.8 °F 55.4 °F 82% 30.00 in 10.0 mi SE 6.9 mph - N/A   Overcast
5:15 PM 62.6 °F 53.6 °F 72% 30.00 in 10.0 mi SE 6.9 mph - N/A   Overcast
5:35 PM 62.6 °F 53.6 °F 72% 29.99 in 10.0 mi SE 6.9 mph - N/A   Overcast
5:55 PM 62.6 °F 53.6 °F 72% 30.00 in 10.0 mi SE 9.2 mph - N/A   Overcast
6:15 PM 62.6 °F 53.6 °F 72% 30.00 in 10.0 mi SE 10.4 mph 16.1 mph N/A   Overcast
6:35 PM 62.6 °F 53.6 °F 72% 30.00 in 10.0 mi SE 8.1 mph 17.3 mph N/A   Overcast
6:55 PM 60.8 °F 53.6 °F 77% 30.00 in 10.0 mi SSE 16.1 mph 20.7 mph N/A   Overcast
7:15 PM 60.8 °F 53.6 °F 77% 30.00 in 10.0 mi SE 12.7 mph 20.7 mph N/A   Overcast
7:55 PM 60.8 °F 53.6 °F 77% 30.00 in 10.0 mi SE 12.7 mph - N/A   Overcast
8:15 PM 60.8 °F 53.6 °F 77% 30.00 in 10.0 mi SE 11.5 mph - N/A   Overcast
8:35 PM 62.6 °F 53.6 °F 72% 30.01 in 10.0 mi SSE 8.1 mph - N/A   Overcast
8:55 PM 62.6 °F 53.6 °F 72% 30.01 in 10.0 mi SSE 9.2 mph - N/A   Overcast
9:15 PM 62.6 °F 53.6 °F 72% 30.01 in 10.0 mi SE 11.5 mph - N/A   Overcast
9:35 PM 62.6 °F 53.6 °F 72% 30.01 in 10.0 mi SSE 6.9 mph - N/A   Overcast
9:55 PM 62.6 °F 53.6 °F 72% 30.01 in 10.0 mi SE 10.4 mph 17.3 mph N/A   Overcast
10:15 PM 62.6 °F 53.6 °F 72% 30.01 in 10.0 mi SE 10.4 mph 18.4 mph N/A   Overcast
10:35 PM 62.6 °F 53.6 °F 72% 30.01 in 10.0 mi SE 12.7 mph - N/A   Overcast
10:55 PM 62.6 °F 53.6 °F 72% 30.01 in 10.0 mi SE 9.2 mph - N/A   Overcast
11:15 PM 62.6 °F 53.6 °F 72% 30.00 in 10.0 mi SE 11.5 mph - N/A   Overcast
11:35 PM 62.6 °F 53.6 °F 72% 30.01 in 10.0 mi SE 10.4 mph 16.1 mph N/A   Overcast
11:55 PM 62.6 °F 53.6 °F 72% 30.00 in 10.0 mi SE 12.7 mph - N/A   Overcast